• Processing (Info)

  • MPEC 2019-Q119 : 2019 QV4

    The following Minor Planet Electronic Circular may be linked-to from your own Web pages, but must not otherwise be redistributed electronically.

    A form allowing access to any MPEC is at the bottom of this page.


    Read MPEC 2019-Q118 Read MPEC 2019-Q120


    M.P.E.C. 2019-Q119                                Issued 2019 August 29, 20:32 UT  
    
         The Minor Planet Electronic Circulars contain information on unusual
             minor planets and routine data on comets.  They are published
        on behalf of Division F of the International Astronomical Union by the
              Minor Planet Center, Smithsonian Astrophysical Observatory,
                              Cambridge, MA 02138, U.S.A.
    
                 Prepared using the Tamkin Foundation Computer Network
    
                                  MPC@CFA.HARVARD.EDU
                URL https://www.minorplanetcenter.net/    ISSN 1523-6714
    
                                    2019 QV4                                 
    
    
    Observations:
         K19Q04V* C2019 08 28.44006821 37 00.74 -18 31 50.6          16.75oVEQ119T08
         K19Q04V  C2019 08 28.45323821 37 02.05 -18 23 14.2          16.80oVEQ119T08
         K19Q04V  C2019 08 28.45850821 37 02.59 -18 19 46.9          16.91oVEQ119T08
         K19Q04V KC2019 08 28.88748621 38 53.52 -13 40 13.1          16.6 GVEQ119G34
         K19Q04V KC2019 08 28.88953521 38 53.90 -13 38 52.5          16.8 GVEQ119G34
         K19Q04V KC2019 08 28.89158421 38 54.14 -13 37 30.9          16.7 GVEQ119G34
         K19Q04V KC2019 08 28.89363221 38 54.41 -13 36 10.0          16.9 GVEQ119G34
         K19Q04V KC2019 08 28.89568021 38 54.64 -13 34 49.7          17.0 GVEQ119G34
         K19Q04V KC2019 08 28.89843121 38 55.39 -13 32 44.8          17.6 VVEQ119L01
         K19Q04V KC2019 08 28.92284 21 38 58.38 -13 16 46.8          16.8 GVEQ119A44
         K19Q04V KC2019 08 28.92426 21 38 58.54 -13 15 50.7          17.0 GVEQ119A44
         K19Q04V KC2019 08 28.92432421 38 58.52 -13 15 55.2          16.9 GVEQ119G34
         K19Q04V KC2019 08 28.92566 21 38 58.71 -13 14 55.4          17.2 GVEQ119A44
         K19Q04V KC2019 08 28.92637321 38 58.78 -13 14 34.0          17.1 GVEQ119G34
         K19Q04V KC2019 08 28.92711 21 38 58.90 -13 13 57.6          17.3 GVEQ119A44
         K19Q04V KC2019 08 28.92854 21 38 59.08 -13 13 01.3          16.8 GVEQ119A44
         K19Q04V KC2019 08 28.93842121 39 00.29 -13 06 20.4          17.4 VVEQ119L01
         K19Q04V KC2019 08 28.93913 21 38 56.18 -13 06 03.6          17.2 RqEQ119585
         K19Q04V KC2019 08 28.93978 21 38 56.32 -13 05 37.8          17.1 RqEQ119585
         K19Q04V KC2019 08 28.94030921 39 00.51 -13 05 05.7          17.7 VVEQ119L01
         K19Q04V KC2019 08 28.94088 21 38 56.41 -13 04 54.6          16.9 RqEQ119585
         K19Q04V KC2019 08 28.94153 21 38 56.54 -13 04 28.4          17.1 RqEQ119585
         K19Q04V KC2019 08 28.94218 21 38 56.60 -13 04 02.1          16.8 RqEQ119585
         K19Q04V KC2019 08 28.94347 21 38 56.77 -13 03 11.3          16.9 RqEQ119585
         K19Q04V KC2019 08 28.94412 21 38 56.92 -13 02 45.4          16.9 RqEQ119585
         K19Q04V KC2019 08 28.94479 21 38 57.02 -13 02 19.2          16.9 RqEQ119585
         K19Q04V KC2019 08 28.94542 21 38 57.08 -13 01 53.7          16.9 RqEQ119585
         K19Q04V KC2019 08 28.94595 21 38 57.18 -13 01 33.0          17.0 RqEQ119585
         K19Q04V KC2019 08 28.94977 21 39 05.71 -12 58 48.5          17.3 VqEQ119I93
         K19Q04V  C2019 08 28.95370921 39 12.254-12 55 05.01         16.8 GVEQ119J04
         K19Q04V  C2019 08 28.95383821 39 12.266-12 55 00.03         16.8 GVEQ119J04
         K19Q04V  C2019 08 28.95396321 39 12.283-12 54 55.11         16.8 GVEQ119J04
         K19Q04V KC2019 08 28.95424 21 39 06.27 -12 55 51.2          17.1 VqEQ119I93
         K19Q04V KC2019 08 28.95904 21 39 06.86 -12 52 41.0          17.0 VqEQ119I93
         K19Q04V KC2019 08 28.98967121 39 11.16 -12 32 46.4          17.3 GVEQ119J95
         K19Q04V KC2019 08 28.99103821 39 11.36 -12 31 52.2          17.0 GVEQ119J95
         K19Q04V KC2019 08 28.99250321 39 11.55 -12 30 53.8          17.2 GVEQ119J95
         K19Q04V KC2019 08 28.99407921 39 11.75 -12 29 51.5          17.4 GVEQ119J95
         K19Q04V KC2019 08 29.10473 21 39 48.99 -11 15 38.1          17.0 GVEQ119W34
         K19Q04V KC2019 08 29.11374 21 39 50.14 -11 09 42.2          17.1 GVEQ119W34
         K19Q04V KC2019 08 29.11808 21 39 50.62 -11 06 50.4          17.0 GVEQ119W34
         K19Q04V KC2019 08 29.12240 21 39 51.11 -11 03 59.6          16.9 GVEQ119W34
         K19Q04V KC2019 08 29.13388 21 39 52.42 -10 56 25.9          17.0 GVEQ119W34
         K19Q04V KC2019 08 29.23747321 40 05.43 -09 48 16.1          17.4 VuEQ119H21
         K19Q04V KC2019 08 29.23832821 40 05.53 -09 47 42.2          17.4 VuEQ119H21
         K19Q04V KC2019 08 29.23918221 40 05.62 -09 47 08.3          17.5 VuEQ119H21
         K19Q04V KC2019 08 29.24003821 40 05.72 -09 46 34.5          17.5 VuEQ119H21
         K19Q04V KC2019 08 29.24093521 40 05.82 -09 45 58.8          17.4 VuEQ119H21
         K19Q04V KC2019 08 29.24445 21 40 05.34 -09 43 21.0          17.3 VqEQ119850
         K19Q04V KC2019 08 29.25180 21 40 06.12 -09 38 29.1          17.2 VqEQ119850
         K19Q04V KC2019 08 29.25911 21 40 06.92 -09 33 38.4          17.2 VqEQ119850
         K19Q04V KC2019 08 29.26641 21 40 07.73 -09 28 47.8          17.2 VqEQ119850
         K19Q04V KC2019 08 29.27357 21 40 08.54 -09 24 03.2          17.2 VqEQ119850
         K19Q04V  C2019 08 29.43834621 40 47.38 -07 34 06.4          16.67oVEQ119T08
         K19Q04V  C2019 08 29.44166621 40 47.67 -07 31 55.5          16.51oVEQ119T08
         K19Q04V  C2019 08 29.44825321 40 48.25 -07 27 34.7          16.64oVEQ119T08
         K19Q04V KC2019 08 29.75994 21 42 19.79 -03 59 05.6          17.4 GVEQ119L29
         K19Q04V KC2019 08 29.76226 21 42 20.12 -03 57 35.4          17.6 GVEQ119L29
         K19Q04V KC2019 08 29.76457 21 42 20.43 -03 56 05.8          17.8 GVEQ119L29
         K19Q04V KC2019 08 29.76688 21 42 20.76 -03 54 35.8          17.9 GVEQ119L29
         K19Q04V KC2019 08 29.76915 21 42 21.07 -03 53 07.5          17.6 GVEQ119L29
         K19Q04V KC2019 08 29.80795921 42 24.41 -03 34 09.8          16.8 GVEQ119587
         K19Q04V KC2019 08 29.80876721 42 24.53 -03 33 38.0          16.7 GVEQ119587
         K19Q04V KC2019 08 29.80957321 42 24.66 -03 33 06.7          16.9 GVEQ119587
    
    Observer details:
    585 Kyiv comet station.  Observers A. Baransky, N. Kaplina.  0.7-m f/4 
       reflector + CCD.
    587 Sormano.  Observers P. Sicoli, A. Testa.  Measurer P. Sicoli.  0.5-m f/6.8 
       reflector + CCD.
    850 Cordell-Lorenz Observatory, Sewanee.  Observer D. T. Durig.  0.3-m f/5.0 
       Schmidt-Cassegrain + CCD.
    A44 Altschwendt.  Observer W. Ries.  0.45-m f/4.5 reflector + CCD.
    G34 Oberfrauendorf.  Observer T. Felber.  0.35-m f/6.3 Schmidt-Cassegrain + CCD.
    H21 Astronomical Research Observatory, Westfield.  Observer R. Holmes.  
        Measurers S. Foglia, L. Buzzi, T. Linder, R. Holmes.  0.61-m f/4.5 
       astrograph + CCD.
    I93 St Pardon de Conques.  Observer F. Losse.  0.40-m f/3.7 reflector + CCD.
    J04 ESA Optical Ground Station, Tenerife.  Observer P. Ruiz.  Measurers M. 
       Micheli, D. Koschny, M. Busch, A. Knofel, E. Schwab.  1.0-m f/4.4 
       reflector + CCD.
    J95 Great Shefford.  Observer P. Birtwhistle.  0.41-m f/6.3 Schmidt-Cassegrain 
       + CCD.
    L01 Visnjan Observatory, Tican.  Observers K. Korlevic, E. Pettarin.  Measurer 
       E. Pettarin.  1.0-m f/2.9 reflector + CCD.
    L29 Drebach-South Observatory, Windhoek.  Observer G. Lehmann.  0.4-m f/3.6 
       reflector + CCD.
    T08 ATLAS-MLO, Mauna Loa.  Observers L. Denneau, J. Tonry, A. Heinze, H. 
       Weiland, H. Flewelling.  Measurers L. Denneau, J. Tonry, A. Heinze, H. 
       Weiland, H. Flewelling, B. Stalder, A. Fitzsimmons, D. Young, N. Erasmus.  
        0.5-m reflector + CCD.
    W34 Squirrel Valley Observatory, Columbus.  Observer R. L. Flynn.  0.35-m f/1.9 
       Schmidt-Cassegrain + CCD.
    
    Orbital elements:
    2019 QV4                                                 Earth MOID = 0.0248 AU
    Epoch 2019 Apr. 27.0 TT = JDT 2458600.5                 Veres
    M 296.94786              (2000.0)            P               Q
    n   0.50370055     Peri.    1.42670     +0.91397264     +0.39353096
    a   1.5644239      Node   334.67435     -0.37454509     +0.72437350
    e   0.3382671      Incl.   13.37222     -0.15610894     +0.56605337
    P   1.96           H   24.5           G   0.15           U   6
    Residuals in seconds of arc
    190828 T08  0.1-  0.1-    190828 585  0.3-  0.7+    190829 H21  0.0   0.4-
    190828 T08  0.1-  0.5-    190828 585  0.4-  0.2+    190829 H21  0.0   0.4-
    190828 T08  0.0   0.2-    190828 585  0.5+  0.3+    190829 H21  0.0   0.6-
    190828 G34  0.5-  0.0     190828 585  0.6+  0.1-    190829 H21  0.0   0.5-
    190828 G34  1.0+  0.4-    190828 585  0.1+  0.3+    190829 850  0.1+  0.1-
    190828 G34  0.4+  0.2+    190828 585  0.5+  0.1-    190829 850  0.0   0.3-
    190828 G34  0.2+  0.1+    190828 I93  0.2-  0.3-    190829 850  0.0   0.1-
    190828 G34  0.5-  0.5-    190828 J04  0.1-  0.1-    190829 850  0.1+  0.3+
    190828 L01  0.5+  0.4-    190828 J04  0.1-  0.2-    190829 850  0.2+  0.2+
    190828 A44  0.3+  0.5+    190828 J04  0.1-  0.2-    190829 T08  0.0   0.0
    190828 A44  0.0   0.4+    190828 I93  0.0   0.1-    190829 T08  0.0   0.6-
    190828 G34  0.0   0.2+    190828 I93  0.1+  0.1-    190829 T08  0.0   0.6-
    190828 A44  0.1-  0.2+    190828 J95  0.1-  0.0     190829 L29  0.0   0.4+
    190828 G34  0.2-  0.3+    190828 J95  0.1+  0.1-    190829 L29  0.0   0.3+
    190828 A44  0.1-  0.6+    190828 J95  0.0   0.2+    190829 L29  0.2-  0.0
    190828 A44  0.1-  0.2+    190828 J95  0.2-  0.1-    190829 L29  0.0   0.2+
    190828 L01  0.0   0.2+    190829 W34  0.3-  0.0     190829 L29  0.0   0.1+
    190828 585  0.2-  0.4+    190829 W34  0.6+  0.0     190829 587  0.1-  0.3-
    190828 585  0.5+  0.4+    190829 W34  0.1+  0.2+    190829 587  0.0   0.1+
    190828 L01  0.2-  0.1+    190829 W34  0.2-  0.2+    190829 587  0.1+  0.1+
    190828 585  0.4-  0.1-    190829 W34  0.2-  0.1-
    190828 585  0.2+  0.2+    190829 H21  0.0   0.3-
    
    Ephemeris:
    2019 QV4                 a,e,i = 1.56, 0.34, 13                  q = 1.0352
    Date    TT    R. A. (2000) Decl.     Delta      r    Elong.  Phase     V
    2019 07 30    17 08 43.6 -85 02 24   0.1476  1.0788   111.7    61.0    22.7
    ...
    2019 08 14    19 56 27.7 -80 00 28   0.07892 1.0473   113.7    62.4    21.3
    ...
    2019 08 22    21 04 59.7 -64 21 19   0.04368 1.0383   126.7    51.3    19.7
    ...
    2019 08 28    21 35 21.6 -23 11 10   0.02627 1.0354   162.4    17.2    17.6
    2019 08 29    21 39 15.0 -12 21 23   0.02569 1.0353   167.8    11.9    17.3
    2019 08 30    21 42 53.3 -01 26 40   0.02608 1.0352   165.6    14.0    17.5
    ...
    2019 09 05    22 00 41.4 +41 10 34   0.04294 1.0367   130.2    47.9    19.5
    ...
    2019 09 13    22 17 41.0 +57 50 18   0.07823 1.0439   116.7    59.4    21.2
    ...
    2019 09 28    22 40 32.4 +64 46 24   0.1478  1.0723   114.6    58.2    22.6
    
    A. U. Tomatic                (C) Copyright 2019 MPC           M.P.E.C. 2019-Q119
    


    Read MPEC 2019-Q118 Read MPEC 2019-Q120


    MPEC number:

    Enter an MPEC number in one of the following forms:

    • 1997-B01 (the full form)
    • J97B01 (the packed version of the full form)
    • B01 (the abbreviated form)